This is the latest recevied weather packets stored in our database for station/object HB9TJR-3. If no packets are shown the sender has not sent any weather packets the latest 10 day(s).
| Time | Temp. | Humidity | Pressure | Rain* | Wind** | Luminosity | Snow |
|---|---|---|---|---|---|---|---|
| 1777804774 | 13.89° C | 70% | 866.4 hPa | 0 mm | - | - | - |
| 1777803818 | 14.44° C | 70% | 866.4 hPa | 0 mm | - | - | - |
| 1777802855 | 14.44° C | 64% | 866.4 hPa | 0 mm | - | - | - |
| 1777800935 | 14.44° C | 57% | 866.3 hPa | 0 mm | - | - | - |
| 1777799975 | 13.33° C | 58% | 866.3 hPa | 0 mm | - | - | - |
| 1777798055 | 13.33° C | 55% | 866.4 hPa | 0 mm | - | - | - |
| 1777797219 | 13.89° C | 53% | 866.4 hPa | 0 mm | - | - | - |
| 1777797094 | 13.89° C | 53% | 866.4 hPa | 0 mm | - | - | - |
| 1777795174 | 12.78° C | 56% | 866.2 hPa | 0 mm | - | - | - |
| 1777793255 | 12.22° C | 51% | 866 hPa | 0 mm | - | - | - |
| 1777791336 | 11.67° C | 53% | 866.3 hPa | 0 mm | - | - | - |
| 1777790375 | 11.67° C | 53% | 866.5 hPa | 0 mm | - | - | - |
| 1777789416 | 11.67° C | 51% | 866.5 hPa | 0 mm | - | - | - |
| 1777788455 | 11.67° C | 51% | 866.6 hPa | 0 mm | - | - | - |
| 1777787494 | 11.67° C | 50% | 866.6 hPa | 0 mm | - | - | - |
| 1777786534 | 11.67° C | 50% | 866.7 hPa | 0 mm | - | - | - |
| 1777785575 | 11.11° C | 51% | 866.4 hPa | 0 mm | - | - | - |
| 1777782694 | 11.11° C | 50% | 866.4 hPa | 0 mm | - | - | - |
| 1777781734 | 11.11° C | 50% | 866.4 hPa | 0 mm | - | - | - |
| 1777780774 | 11.11° C | 46% | 866.5 hPa | 0 mm | - | - | - |
| 1777779814 | 11.11° C | 47% | 866.6 hPa | 0 mm | - | - | - |
| 1777778854 | 11.67° C | 47% | 866.7 hPa | 0 mm | - | - | - |
| 1777777894 | 11.67° C | 47% | 866.7 hPa | 0 mm | - | - | - |
| 1777776934 | 11.67° C | 49% | 866.6 hPa | 0 mm | - | - | - |
| 1777775974 | 12.22° C | 50% | 866.9 hPa | 0 mm | - | - | - |
* Rain latest hour (hover to see other rain measurements)
** Current wind speed in m/s (hover to see current wind gust speed)